Location: Newark
(25.0000°N, 73.5000°E)
Time: 15:29:42
(UTC+00:00)

RS-15 - Pass Details

Date: 25 February 2020
Orbit: 1898 x 2146 km, 64.8° (Epoch: 31 March)

Event Time Altitude Azimuth Distance (km) Brightness Sun altitude
Rises 22:53:31 0° 343° (NNW) 5,329 10.2 -36.7°
Reaches altitude 10° 22:57:12 10° 351° (N) 4,355 9.8 -35.8°
Maximum altitude 23:07:22 38° 57° (ENE) 2,787 9.1 -33.6°
Drops below altitude 10° 23:17:52 10° 121° (ESE) 4,526 10.5 -31.2°
Sets 23:21:42 0° 129° (SE) 5,558 11.0 -30.3°
